TimeCST,TemperatureF,Dew PointF,Humidity,Sea Level PressureIn,VisibilityMPH,Wind Direction,Wind SpeedMPH,Gust SpeedMPH,PrecipitationIn,Events,Conditions,WindDirDegrees,DateUTC
12:55 AM,32.0,24.8,75,30.04,10.0,West,8.1,-,N/A,,Clear,280,2013-01-31 06:55:00
1:55 AM,30.2,24.8,80,30.05,10.0,West,8.1,-,N/A,,Clear,270,2013-01-31 07:55:00
2:15 AM,30.2,23.0,75,30.05,10.0,West,4.6,-,N/A,,Clear,260,2013-01-31 08:15:00
2:35 AM,30.2,23.0,75,30.06,10.0,WSW,5.8,-,N/A,,Clear,250,2013-01-31 08:35:00
2:55 AM,28.4,23.0,80,30.06,10.0,WSW,4.6,-,N/A,,Clear,240,2013-01-31 08:55:00
3:15 AM,30.2,24.8,80,30.06,10.0,SW,5.8,-,N/A,,Clear,230,2013-01-31 09:15:00
3:35 AM,28.4,24.8,86,30.05,10.0,SW,5.8,-,N/A,,Clear,230,2013-01-31 09:35:00
3:55 AM,28.4,24.8,86,30.05,10.0,Calm,Calm,-,N/A,,Clear,0,2013-01-31 09:55:00
4:15 AM,28.4,24.8,86,30.06,10.0,WSW,4.6,-,N/A,,Clear,250,2013-01-31 10:15:00
4:35 AM,28.4,24.8,86,30.06,10.0,WSW,5.8,-,N/A,,Clear,250,2013-01-31 10:35:00
4:55 AM,28.4,24.8,86,30.06,10.0,Calm,Calm,-,N/A,,Clear,0,2013-01-31 10:55:00
5:55 AM,28.4,24.8,86,30.10,10.0,SW,5.8,-,N/A,,Clear,220,2013-01-31 11:55:00
6:55 AM,28.4,23.0,80,30.12,10.0,SW,3.5,-,N/A,,Clear,230,2013-01-31 12:55:00
7:55 AM,30.2,26.6,86,30.15,10.0,WSW,5.8,-,N/A,,Clear,250,2013-01-31 13:55:00
8:55 AM,35.6,26.6,70,30.17,10.0,WSW,8.1,-,N/A,,Clear,250,2013-01-31 14:55:00
9:55 AM,39.2,26.6,61,30.18,10.0,SSW,10.4,-,N/A,,Clear,210,2013-01-31 15:55:00
10:55 AM,42.8,26.6,53,30.17,10.0,SW,11.5,-,N/A,,Clear,230,2013-01-31 16:55:00
11:55 AM,44.6,26.6,49,30.14,10.0,Variable,6.9,-,N/A,,Clear,0,2013-01-31 17:55:00
12:55 PM,48.2,26.6,43,30.10,10.0,SSW,10.4,-,N/A,,Clear,200,2013-01-31 18:55:00
1:55 PM,51.8,30.2,44,30.07,10.0,SW,11.5,-,N/A,,Clear,220,2013-01-31 19:55:00
2:55 PM,51.8,33.8,50,30.06,10.0,SSW,12.7,-,N/A,,Partly Cloudy,210,2013-01-31 20:55:00
3:55 PM,53.6,33.8,47,30.07,10.0,SSW,13.8,-,N/A,,Partly Cloudy,210,2013-01-31 21:55:00
4:55 PM,51.8,33.8,50,30.08,10.0,SW,10.4,-,N/A,,Partly Cloudy,220,2013-01-31 22:55:00
5:55 PM,48.2,33.8,58,30.09,10.0,SW,6.9,-,N/A,,Scattered Clouds,220,2013-01-31 23:55:00
6:55 PM,46.4,35.6,66,30.11,10.0,NW,4.6,-,N/A,,Mostly Cloudy,320,2013-02-01 00:55:00
8:55 PM,39.2,32.0,75,30.22,10.0,NNW,10.4,-,N/A,,Overcast,340,2013-02-01 02:55:00
9:55 PM,35.6,32.0,87,30.28,10.0,NW,15.0,-,N/A,,Mostly Cloudy,320,2013-02-01 03:55:00
10:20 PM,33.8,30.2,87,30.31,7.0,NNW,16.1,-,N/A,Snow,Light Snow,330,2013-02-01 04:20:00
10:55 PM,30.2,24.8,80,30.31,7.0,NW,12.7,-,N/A,Snow,Light Snow,310,2013-02-01 04:55:00